Home > Weather > Patna > Past weeks

Flag for India Past Weather in Patna, Bihar, India — Yesterday and Last 2 Weeks

Now
86 °F

Scattered clouds.


Feels Like: 102 °F
Forecast: 83 / 96 °F
Wind: 5 mph from East

Location: Patna Airport

Current Time: Aug 29, 2016 at 1:02:13 PM

Latest Report: Aug 29, 2016 at 12:00 PM


Visibility: 2 mi

Pressure: 29.62 "Hg

Humidity: 84%

Dew Point: 81 °F

Location of PatnaLocation

Past Weather in Patna — Graph

°F

Patna Temperature Yesterday

Maximum temperature yesterday: 97 °F (at 1:00 PM)
Minimum temperature yesterday: 84 °F (at 5:30 AM)
Average temperature yesterday: 92 °F

High & Low Weather Summary for the Past Weeks

 TemperatureHumidityPressure
High99 °F (Aug 27, 3:30 PM)100% (Aug 26, 7:30 AM)29.74 "Hg (Aug 26, 7:30 AM)
Low79 °F (Aug 26, 8:30 AM)53% (Aug 27, 3:30 PM)29.33 "Hg (Aug 15, 3:00 PM)
Average88 °F76%29.54 "Hg
* Reported Aug 14 11:30 AM — Aug 29 12:00 PM, Patna, Weather by CustomWeather, © 2016

Note: Actual official high and low records may vary slightly from our data, if they occured in-between our weather recording intervals... More about our weather records

Advertising

Patna Weather History for the Previous 24 Hours

Scroll right to see more
 ConditionsComfort  
Time TempWeatherWind HumidityBarometerVisibility
12:00 PM
Mon, Aug 29
86 °FScattered clouds.5 mph84%29.62 "Hg2 mi
11:30 AM86 °FBroken clouds.5 mph84%29.62 "Hg1 mi
10:30 AM93 °FBroken clouds.5 mph67%29.65 "Hg2 mi
10:00 AM93 °FBroken clouds.3 mph67%29.65 "Hg2 mi
9:30 AM93 °FHaze.No wind67%29.65 "Hg2 mi
9:00 AM93 °FHaze.No wind67%29.65 "Hg2 mi
8:30 AM91 °FHaze.No wind71%29.65 "Hg1 mi
8:00 AM88 °FHaze.No wind84%29.65 "Hg1 mi
7:30 AM88 °FClear.No wind84%29.65 "Hg1 mi
7:00 AM86 °FClear.No wind89%29.65 "Hg1 mi
6:30 AM84 °FClear.No wind89%29.65 "Hg1 mi
5:30 AM84 °FClear.No wind89%29.62 "Hg1 mi
9:00 PM
Sun, Aug 28
86 °FHaze.No wind84%29.65 "Hg2 mi
8:30 PM88 °FHaze.3 mph79%29.65 "Hg2 mi
8:00 PM88 °FHaze.No wind79%29.62 "Hg2 mi
7:30 PM90 °FHaze.2 mph75%29.62 "Hg2 mi
7:00 PM90 °FPassing clouds.No wind75%29.62 "Hg2 mi
6:30 PM91 °FHaze.No wind71%29.59 "Hg3 mi
6:00 PM93 °FPassing clouds.No wind67%29.59 "Hg3 mi
5:30 PM93 °FScattered clouds.No wind67%29.59 "Hg4 mi
5:00 PM95 °FScattered clouds.6 mph60%29.59 "Hg4 mi
4:30 PM95 °FScattered clouds.6 mph60%29.62 "Hg4 mi
4:00 PM97 °FScattered clouds.5 mph56%29.62 "Hg4 mi
3:30 PM97 °FScattered clouds.No wind56%29.62 "Hg4 mi
3:00 PM97 °FScattered clouds.9 mph56%29.62 "Hg4 mi
2:30 PM97 °FScattered clouds.7 mph56%29.62 "Hg4 mi
2:00 PM97 °FScattered clouds.No wind56%29.65 "Hg4 mi
1:30 PM97 °FScattered clouds.7 mph56%29.65 "Hg4 mi
1:00 PM97 °FScattered clouds.5 mph56%29.68 "Hg4 mi
Weather by CustomWeather, © 2016

See weather overviewHow to use our weather pages